Year,Month,Day,Hour,Minute,Value (Times are PST for temperature in C)
2018,04,22,10,35,9.00
2018,04,22,10,36,9.00
2018,04,22,10,37,9.00
2018,04,22,10,38,9.00
2018,04,22,10,39,9.00
2018,04,22,10,40,9.00
2018,04,22,10,41,9.10
2018,04,22,10,42,9.10
2018,04,22,10,43,9.00
2018,04,22,10,44,9.10
2018,04,22,10,45,9.10
2018,04,22,10,46,9.10
2018,04,22,10,47,9.10
2018,04,22,10,48,9.00
2018,04,22,10,49,9.00
2018,04,22,10,50,9.00
2018,04,22,10,51,9.00
2018,04,22,10,52,9.00
2018,04,22,10,53,9.10
2018,04,22,10,54,9.10
2018,04,22,10,55,9.10
2018,04,22,10,56,9.10
2018,04,22,10,57,9.10
2018,04,22,10,58,9.20
2018,04,22,10,59,9.20
2018,04,22,11,00,9.30
2018,04,22,11,01,9.30
2018,04,22,11,02,9.40
2018,04,22,11,03,9.50
2018,04,22,11,04,9.60
2018,04,22,11,05,9.60
2018,04,22,11,06,9.70
2018,04,22,11,07,9.70
2018,04,22,11,08,9.80
2018,04,22,11,09,9.90
2018,04,22,11,10,10.00
2018,04,22,11,11,10.10
2018,04,22,11,12,10.20
2018,04,22,11,13,10.20
2018,04,22,11,14,10.30
2018,04,22,11,15,10.30
2018,04,22,11,16,10.30
2018,04,22,11,17,10.30
2018,04,22,11,18,10.30
2018,04,22,11,19,10.30
2018,04,22,11,20,10.40
2018,04,22,11,21,10.50
2018,04,22,11,22,10.50
2018,04,22,11,23,10.60
2018,04,22,11,24,10.70
2018,04,22,11,25,10.70
2018,04,22,11,26,10.80
2018,04,22,11,27,10.80
2018,04,22,11,28,10.80
2018,04,22,11,29,10.80
2018,04,22,11,30,10.80
2018,04,22,11,31,10.80
2018,04,22,11,32,10.80
2018,04,22,11,33,10.90
2018,04,22,11,34,10.80
2018,04,22,11,35,10.80
2018,04,22,11,36,10.70
2018,04,22,11,37,10.60
2018,04,22,11,38,10.50
2018,04,22,11,39,10.30
2018,04,22,11,40,10.30
2018,04,22,11,41,10.20
2018,04,22,11,42,10.10
2018,04,22,11,43,10.10
2018,04,22,11,44,10.10
2018,04,22,11,45,10.10
2018,04,22,11,46,10.10
2018,04,22,11,47,10.10
2018,04,22,11,48,10.20
2018,04,22,11,49,10.20
2018,04,22,11,50,10.30
2018,04,22,11,51,10.30
2018,04,22,11,52,10.30
2018,04,22,11,53,10.30
2018,04,22,11,54,10.40
2018,04,22,11,55,10.40
2018,04,22,11,56,10.40
2018,04,22,11,57,10.50
2018,04,22,11,58,10.40
2018,04,22,11,59,10.40
2018,04,22,12,00,10.40
2018,04,22,12,01,10.40
2018,04,22,12,02,10.40
2018,04,22,12,03,10.40
2018,04,22,12,04,10.40
2018,04,22,12,05,10.40
2018,04,22,12,06,10.40
2018,04,22,12,07,10.50
2018,04,22,12,08,10.60
2018,04,22,12,09,10.60
2018,04,22,12,10,10.50
2018,04,22,12,11,10.40
2018,04,22,12,12,10.40
2018,04,22,12,13,10.30
2018,04,22,12,14,10.30
2018,04,22,12,15,10.30
2018,04,22,12,16,10.20
2018,04,22,12,17,10.20
2018,04,22,12,18,10.20
2018,04,22,12,19,10.30
2018,04,22,12,20,10.30
2018,04,22,12,21,10.30
2018,04,22,12,22,10.20
2018,04,22,12,23,10.20
2018,04,22,12,24,10.30
2018,04,22,12,25,10.30
2018,04,22,12,26,10.30
2018,04,22,12,27,10.30
2018,04,22,12,28,10.40
2018,04,22,12,29,10.40
2018,04,22,12,30,10.40
2018,04,22,12,31,10.40
2018,04,22,12,32,10.30
2018,04,22,12,33,10.30
2018,04,22,12,34,10.20
2018,04,22,12,35,10.20
2018,04,22,12,36,10.30
2018,04,22,12,37,10.40
2018,04,22,12,38,10.50
2018,04,22,12,39,10.50
2018,04,22,12,40,10.40
2018,04,22,12,41,10.40
2018,04,22,12,42,10.40
2018,04,22,12,43,10.40
2018,04,22,12,44,10.40
2018,04,22,12,45,10.50
2018,04,22,12,46,10.60
2018,04,22,12,47,10.80
2018,04,22,12,48,10.80
2018,04,22,12,49,10.80
2018,04,22,12,50,10.80
2018,04,22,12,51,10.80
2018,04,22,12,52,10.80
2018,04,22,12,53,10.80
2018,04,22,12,54,10.80
2018,04,22,12,55,10.70
2018,04,22,12,56,10.70
2018,04,22,12,57,10.80
2018,04,22,12,58,10.80
2018,04,22,12,59,10.90
2018,04,22,13,00,10.90
2018,04,22,13,01,10.90
2018,04,22,13,02,10.90
2018,04,22,13,03,11.00
2018,04,22,13,04,10.90
2018,04,22,13,05,10.90
2018,04,22,13,06,10.80
2018,04,22,13,07,10.80
2018,04,22,13,08,10.80
2018,04,22,13,09,10.80
2018,04,22,13,10,10.90
2018,04,22,13,11,10.90
2018,04,22,13,12,10.80
2018,04,22,13,13,10.70
2018,04,22,13,14,10.60
2018,04,22,13,15,10.60
2018,04,22,13,16,10.60
2018,04,22,13,17,10.60
2018,04,22,13,18,10.60
2018,04,22,13,19,10.60
2018,04,22,13,20,10.70
2018,04,22,13,21,10.70
2018,04,22,13,22,10.70
2018,04,22,13,23,10.70
2018,04,22,13,24,10.70
2018,04,22,13,25,10.70
2018,04,22,13,26,10.70
2018,04,22,13,27,10.70
2018,04,22,13,28,10.70
2018,04,22,13,29,10.70
2018,04,22,13,30,10.70
2018,04,22,13,31,10.70
2018,04,22,13,32,10.70
2018,04,22,13,33,10.80
2018,04,22,13,34,10.80
2018,04,22,13,35,10.90
2018,04,22,13,36,10.90
2018,04,22,13,37,10.90
2018,04,22,13,38,10.90
2018,04,22,13,39,11.00
2018,04,22,13,40,11.00
2018,04,22,13,41,11.00
2018,04,22,13,42,11.00
2018,04,22,13,43,10.90
2018,04,22,13,44,10.90
2018,04,22,13,45,10.90
2018,04,22,13,46,10.90
2018,04,22,13,47,10.90
2018,04,22,13,48,11.00
2018,04,22,13,49,10.90
2018,04,22,13,50,11.00
2018,04,22,13,51,11.00
2018,04,22,13,52,10.90
2018,04,22,13,53,10.90
2018,04,22,13,54,10.80
2018,04,22,13,55,10.80
2018,04,22,13,56,10.70
2018,04,22,13,57,10.70
2018,04,22,13,58,10.70
2018,04,22,13,59,10.80
2018,04,22,14,00,10.80
2018,04,22,14,01,10.80
2018,04,22,14,02,10.90
2018,04,22,14,03,10.90
2018,04,22,14,04,10.90
2018,04,22,14,05,10.80
2018,04,22,14,06,10.80
2018,04,22,14,07,10.80
2018,04,22,14,08,10.80
2018,04,22,14,09,10.80
2018,04,22,14,10,10.90
2018,04,22,14,11,11.00
2018,04,22,14,12,11.00
2018,04,22,14,13,11.10
2018,04,22,14,14,11.20
2018,04,22,14,15,11.30
2018,04,22,14,16,11.30
2018,04,22,14,17,11.40
2018,04,22,14,18,11.40
2018,04,22,14,19,11.50
2018,04,22,14,20,11.50
2018,04,22,14,21,11.50
2018,04,22,14,22,11.50
2018,04,22,14,23,11.40
2018,04,22,14,24,11.50
2018,04,22,14,25,11.50
2018,04,22,14,26,11.50
2018,04,22,14,27,11.50
2018,04,22,14,28,11.60
2018,04,22,14,29,11.50
2018,04,22,14,30,11.60
2018,04,22,14,31,11.60
2018,04,22,14,32,11.70
2018,04,22,14,33,11.70
2018,04,22,14,34,11.70
2018,04,22,14,35,11.70
2018,04,22,14,36,11.70
2018,04,22,14,37,11.80
2018,04,22,14,38,11.70
2018,04,22,14,39,11.70
2018,04,22,14,40,11.60
2018,04,22,14,41,11.60
2018,04,22,14,42,11.50
2018,04,22,14,43,11.40
2018,04,22,14,44,11.40
2018,04,22,14,45,11.40
2018,04,22,14,46,11.30
2018,04,22,14,47,11.30
2018,04,22,14,48,11.20
2018,04,22,14,49,11.20
2018,04,22,14,50,11.20
2018,04,22,14,51,11.10
2018,04,22,14,52,11.10
2018,04,22,14,53,11.00
2018,04,22,14,54,11.00
2018,04,22,14,55,10.90
2018,04,22,14,56,10.90
2018,04,22,14,57,10.90
2018,04,22,14,58,10.90
2018,04,22,14,59,11.00
2018,04,22,15,00,11.10
2018,04,22,15,01,11.20
2018,04,22,15,02,11.20
2018,04,22,15,03,11.20
2018,04,22,15,04,11.30
2018,04,22,15,05,11.40
2018,04,22,15,06,11.50
2018,04,22,15,07,11.50
2018,04,22,15,08,11.60
2018,04,22,15,09,11.60
2018,04,22,15,10,11.70
2018,04,22,15,11,11.60
2018,04,22,15,12,11.70
2018,04,22,15,13,11.70
2018,04,22,15,14,11.70
2018,04,22,15,15,11.70
2018,04,22,15,16,11.60
2018,04,22,15,17,11.60
2018,04,22,15,18,11.50
2018,04,22,15,19,11.50
2018,04,22,15,20,11.40
2018,04,22,15,21,11.40
2018,04,22,15,22,11.50
2018,04,22,15,23,11.50
2018,04,22,15,24,11.60
2018,04,22,15,25,11.60
2018,04,22,15,26,11.70
2018,04,22,15,27,11.60
2018,04,22,15,28,11.60
2018,04,22,15,29,11.50
2018,04,22,15,30,11.40
2018,04,22,15,31,11.30
2018,04,22,15,32,11.30
2018,04,22,15,33,11.30
2018,04,22,15,34,11.20
2018,04,22,15,35,11.30
2018,04,22,15,36,11.30
2018,04,22,15,37,11.30
2018,04,22,15,38,11.30
2018,04,22,15,39,11.30
2018,04,22,15,40,11.30
2018,04,22,15,41,11.30
2018,04,22,15,42,11.30
2018,04,22,15,43,11.30
2018,04,22,15,44,11.30
2018,04,22,15,45,11.30
2018,04,22,15,46,11.30
2018,04,22,15,47,11.40
2018,04,22,15,48,11.50
2018,04,22,15,49,11.60
2018,04,22,15,50,11.60
2018,04,22,15,51,11.60
2018,04,22,15,52,11.70
2018,04,22,15,53,11.70
2018,04,22,15,54,11.70
2018,04,22,15,55,11.70
2018,04,22,15,56,11.60
2018,04,22,15,57,11.60
2018,04,22,15,58,11.70
2018,04,22,15,59,11.70
2018,04,22,16,00,11.80
2018,04,22,16,01,11.90
2018,04,22,16,02,12.00
2018,04,22,16,03,12.10
2018,04,22,16,04,12.10
2018,04,22,16,05,12.10
2018,04,22,16,06,12.00
2018,04,22,16,07,11.90
2018,04,22,16,08,11.80
2018,04,22,16,09,11.70
2018,04,22,16,10,11.70
2018,04,22,16,11,11.80
2018,04,22,16,12,11.80
2018,04,22,16,13,11.80
2018,04,22,16,14,11.80
2018,04,22,16,15,11.70
2018,04,22,16,16,11.70
2018,04,22,16,17,11.70
2018,04,22,16,18,11.70
2018,04,22,16,19,11.80
2018,04,22,16,20,11.80
2018,04,22,16,21,11.90
2018,04,22,16,22,11.90
2018,04,22,16,23,11.90
2018,04,22,16,24,11.70
2018,04,22,16,25,11.60
2018,04,22,16,26,11.60
2018,04,22,16,27,11.60
2018,04,22,16,28,11.50
2018,04,22,16,29,11.40
2018,04,22,16,30,11.30
2018,04,22,16,31,11.30
2018,04,22,16,32,11.30
2018,04,22,16,33,11.40
2018,04,22,16,34,11.40
2018,04,22,16,35,11.40
2018,04,22,16,36,11.50
2018,04,22,16,37,11.60
2018,04,22,16,38,11.70
2018,04,22,16,39,11.80
2018,04,22,16,40,11.90
2018,04,22,16,41,11.90
2018,04,22,16,42,12.00
2018,04,22,16,43,12.00
2018,04,22,16,44,11.90
2018,04,22,16,45,11.90
2018,04,22,16,46,11.90
2018,04,22,16,47,11.80
2018,04,22,16,48,11.90
2018,04,22,16,49,11.90
2018,04,22,16,50,11.90
2018,04,22,16,51,11.90
2018,04,22,16,52,11.90
2018,04,22,16,53,12.00
2018,04,22,16,54,12.00
2018,04,22,16,55,12.00
2018,04,22,16,56,12.00
2018,04,22,16,57,12.10
2018,04,22,16,58,12.20
2018,04,22,16,59,12.30
2018,04,22,17,00,12.30
2018,04,22,17,01,12.30
2018,04,22,17,02,12.30
2018,04,22,17,03,12.30
2018,04,22,17,04,12.30
2018,04,22,17,05,12.30
2018,04,22,17,06,12.40
2018,04,22,17,07,12.30
2018,04,22,17,08,12.30
2018,04,22,17,09,12.30
2018,04,22,17,10,12.30
2018,04,22,17,11,12.30
2018,04,22,17,12,12.30
2018,04,22,17,13,12.30
2018,04,22,17,14,12.30
2018,04,22,17,15,12.30
2018,04,22,17,16,12.30
2018,04,22,17,17,12.30
2018,04,22,17,18,12.40
2018,04,22,17,19,12.40
2018,04,22,17,20,12.40
2018,04,22,17,21,12.30
2018,04,22,17,22,12.30
2018,04,22,17,23,12.20
2018,04,22,17,24,12.10
2018,04,22,17,25,12.00
2018,04,22,17,26,12.00
2018,04,22,17,27,12.00
2018,04,22,17,28,12.00
2018,04,22,17,29,12.10
2018,04,22,17,30,12.10
2018,04,22,17,31,12.20
2018,04,22,17,32,12.20
2018,04,22,17,33,12.30
2018,04,22,17,34,12.30
2018,04,22,17,35,12.30
2018,04,22,17,36,12.30
2018,04,22,17,37,12.30
2018,04,22,17,38,12.30
2018,04,22,17,39,12.30
2018,04,22,17,40,12.30
2018,04,22,17,41,12.40
2018,04,22,17,42,12.40
2018,04,22,17,43,12.40
2018,04,22,17,44,12.40
2018,04,22,17,45,12.40
2018,04,22,17,46,12.40
2018,04,22,17,47,12.40
2018,04,22,17,48,12.40
2018,04,22,17,49,12.40
2018,04,22,17,50,12.50
2018,04,22,17,51,12.50
2018,04,22,17,52,12.50
2018,04,22,17,53,12.50
2018,04,22,17,54,12.60
2018,04,22,17,55,12.60
2018,04,22,17,56,12.60
2018,04,22,17,57,12.60
2018,04,22,17,58,12.60
2018,04,22,17,59,12.60
2018,04,22,18,00,12.50
2018,04,22,18,01,12.50
2018,04,22,18,02,12.50
2018,04,22,18,03,12.40
2018,04,22,18,04,12.40
2018,04,22,18,05,12.40
2018,04,22,18,06,12.40
2018,04,22,18,07,12.50
2018,04,22,18,08,12.50
2018,04,22,18,09,12.50
2018,04,22,18,10,12.60
2018,04,22,18,11,12.60
2018,04,22,18,12,12.50
2018,04,22,18,13,12.50
2018,04,22,18,14,12.50
2018,04,22,18,15,12.50
2018,04,22,18,16,12.50
2018,04,22,18,17,12.50
2018,04,22,18,18,12.50
2018,04,22,18,19,12.50
2018,04,22,18,20,12.50
2018,04,22,18,21,12.50
2018,04,22,18,22,12.60
2018,04,22,18,23,12.60
2018,04,22,18,24,12.60
2018,04,22,18,25,12.60
2018,04,22,18,26,12.50
2018,04,22,18,27,12.40
2018,04,22,18,28,12.40
2018,04,22,18,29,12.30
2018,04,22,18,30,12.40
2018,04,22,18,31,12.40
2018,04,22,18,32,12.40
2018,04,22,18,33,12.50
2018,04,22,18,34,12.40
2018,04,22,18,35,12.40
2018,04,22,18,36,12.40
2018,04,22,18,37,12.50
2018,04,22,18,38,12.50
2018,04,22,18,39,12.50
2018,04,22,18,40,12.50
2018,04,22,18,41,12.50
2018,04,22,18,42,12.50
2018,04,22,18,43,12.50
2018,04,22,18,44,12.50
2018,04,22,18,45,12.60
2018,04,22,18,46,12.60
2018,04,22,18,47,12.50
2018,04,22,18,48,12.50
2018,04,22,18,49,12.40
2018,04,22,18,50,12.30
2018,04,22,18,51,12.30
2018,04,22,18,52,12.30
2018,04,22,18,53,12.30
2018,04,22,18,54,12.30
2018,04,22,18,55,12.30
2018,04,22,18,56,12.30
2018,04,22,18,57,12.30
2018,04,22,18,58,12.30
2018,04,22,18,59,12.30
2018,04,22,19,00,12.30
2018,04,22,19,01,12.20
2018,04,22,19,02,12.20
2018,04,22,19,03,12.20
2018,04,22,19,04,12.10
2018,04,22,19,05,12.00
2018,04,22,19,06,12.00
2018,04,22,19,07,11.90
2018,04,22,19,08,11.80
2018,04,22,19,09,11.80
2018,04,22,19,10,11.70
2018,04,22,19,11,11.70
2018,04,22,19,12,11.70
2018,04,22,19,13,11.70
2018,04,22,19,14,11.70
2018,04,22,19,15,11.70
2018,04,22,19,16,11.70
2018,04,22,19,17,11.70
2018,04,22,19,18,11.80
2018,04,22,19,19,11.80
2018,04,22,19,20,11.80
2018,04,22,19,21,11.80
2018,04,22,19,22,11.80
2018,04,22,19,23,11.70
2018,04,22,19,24,11.70
2018,04,22,19,25,11.70
2018,04,22,19,26,11.70
2018,04,22,19,27,11.70
2018,04,22,19,28,11.60
2018,04,22,19,29,11.60
2018,04,22,19,30,11.60
2018,04,22,19,31,11.60
2018,04,22,19,32,11.50
2018,04,22,19,33,11.50
2018,04,22,19,34,11.40
2018,04,22,19,35,11.40
2018,04,22,19,36,11.40
2018,04,22,19,37,11.40
2018,04,22,19,38,11.40
2018,04,22,19,39,11.40
2018,04,22,19,40,11.40
2018,04,22,19,41,11.40
2018,04,22,19,42,11.40
2018,04,22,19,43,11.40
2018,04,22,19,44,11.40
